Find Astra 1M

NORAD ID: 33436 Int'l Des: 2008-057 Owner: SESA Country: L operational
HEOCIRCULARGSOGEO

現在のビュー

3D地球を読み込み中...

Astra 1Mについて

説明を読み込み中...

次回通過

Passes for default location (London). Set your location on the main map for personalized predictions.

高度履歴

Loading altitude history...

軌道要素

1 33436U 08057A 26146.58570494 .00000124 00000-0 00000-0 0 9997
2 33436 0.2425 82.0304 0004635 9.7969 22.5856 1.00269158 45525
Epoch: May 26, 2026 • Age: 7 hours

現在のステータス

高度 35799.2 km
速度 3.07 km/s
衛星直下点 0.14°N, 19.44°E
打ち上げ日 Nov 5, 2008
運用期間 17.5 years
タイプ other

技術仕様

分類 Payload
質量 5345.00 kg
乾燥質量 3000.00 kg
総質量 5345.00 kg
長さ 4.00 m
直径 2.40 m
スパン 35.00 m
形状 Box + 2 Pan
製造者 ASTT
バスタイプ Eurostar 3000S
フェーズステータス In Orbit
所有者/国 SESA/L

Most Searched